Location: Unspecified
(44.4377°N, 88.0525°W)
Time: 07:37:21
(UTC-05:00)

Cosmos 2058 - Visible Passes

Search period start: 25 October 2014 00:00
Search period end: 03 November 2014 23:00
Orbit: 571 x 592 km, 82.5° (Epoch: 24 October)

Date Brightness Start Highest point End Pass type
(mag) Time Alt. Az. Time Alt. Az. Time Alt. Az.
25 Oct 5.7 04:18:42 10° SE 04:21:23 17° E 04:24:06 10° NE visible
25 Oct 3.3 05:54:08 10° SSW 05:58:06 41° WNW 06:02:08 10° N visible
26 Oct 5.2 04:25:18 19° ESE 04:26:49 23° E 04:30:09 10° NE visible
26 Oct 3.7 06:01:48 21° WSW 06:03:45 30° WNW 06:07:30 10° NNW visible
27 Oct 4.7 04:32:35 31° E 04:32:35 31° E 04:36:02 10° NNE visible
27 Oct 4.1 06:09:03 22° W 06:09:24 22° WNW 06:12:46 10° NNW visible
28 Oct 4.7 04:39:24 29° NE 04:39:24 29° NE 04:41:47 10° NNE visible
28 Oct 4.6 06:15:50 16° NW 06:15:50 16° NW 06:17:52 10° NNW visible
29 Oct 5.0 04:45:55 21° NNE 04:45:55 21° NNE 04:47:26 10° NNE visible
29 Oct 5.1 06:22:21 11° NW 06:22:21 11° NW 06:22:37 10° NW visible
30 Oct 5.3 04:52:15 15° N 04:52:15 15° N 04:53:01 10° N visible
31 Oct 5.6 04:58:26 10° N 04:58:26 10° N 04:58:31 10° N visible
